When you browse on this site, cookies collect data to enhance your experience and personalize the content and advertising you see.
Visit our Privacy Policy to learn more. By continuing to use the site, you agree to this use of cookies and data.
  • In Germany
  • List of Countries
  • For 7 days
  • Water Temperature
  • Weather Map
  • Weather Widgets
  • user-avatar
    Login

    Hourly Weather Gendringen

    Today, 17 February, Monday

    Time Temperature Precipitation Wind Pressure Humidity
    00:00 +7°C° 0 mm 8 mps 753 mmHg 77%
    01:00 +6°C° 0.1 mm 8 mps 753 mmHg 75%
    02:00 +6°C° 0.1 mm 9 mps 754 mmHg 73%
    03:00 +5°C° 0.1 mm 9 mps 755 mmHg 71%
    04:00 +5°C° 0 mm 8 mps 755 mmHg 72%
    05:00 +5°C° 0 mm 8 mps 756 mmHg 73%
    06:00 +5°C° 0 mm 5 mps 756 mmHg 77%
    07:00 +5°C° 0 mm 6 mps 756 mmHg 76%
    08:00 +5°C° 0 mm 7 mps 756 mmHg 75%
    09:00 +6°C° 0 mm 8 mps 756 mmHg 74%
    10:00 +7°C° 0 mm 9 mps 756 mmHg 69%
    11:00 +7°C° 0 mm 9 mps 756 mmHg 64%
    12:00 +9°C° 0 mm 8 mps 756 mmHg 59%
    13:00 +7°C° 0.4 mm 8 mps 756 mmHg 64%
    14:00 +7°C° 0.4 mm 8 mps 756 mmHg 69%
    15:00 +6°C° 0.4 mm 8 mps 756 mmHg 74%
    16:00 +6°C° 0.1 mm 7 mps 756 mmHg 74%
    17:00 +5°C° 0.1 mm 7 mps 757 mmHg 74%
    18:00 +5°C° 0.1 mm 7 mps 757 mmHg 75%
    19:00 +5°C° 0.2 mm 7 mps 757 mmHg 77%
    20:00 +5°C° 0.2 mm 7 mps 758 mmHg 78%
    21:00 +5°C° 0.2 mm 8 mps 758 mmHg 80%
    22:00 +5°C° 0.1 mm 7 mps 758 mmHg 81%
    23:00 +5°C° 0.1 mm 7 mps 759 mmHg 82%

    Tomorrow, 18 February, Tuesday

    Time Temperature Precipitation Wind Pressure Humidity
    00:00 +4°C° 0.1 mm 7 mps 760 mmHg 82%
    01:00 +4°C° 0.1 mm 7 mps 760 mmHg 81%
    02:00 +4°C° 0.1 mm 7 mps 761 mmHg 80%
    03:00 +3°C° 0.1 mm 7 mps 761 mmHg 79%
    04:00 +3°C° 0 mm 7 mps 762 mmHg 79%
    05:00 +3°C° 0 mm 7 mps 762 mmHg 78%
    06:00 +2°C° 0 mm 6 mps 763 mmHg 77%
    07:00 +3°C° 0 mm 7 mps 763 mmHg 74%
    08:00 +2°C° 0 mm 8 mps 764 mmHg 72%
    09:00 +4°C° 0 mm 8 mps 764 mmHg 69%
    10:00 +3°C° 0.1 mm 9 mps 764 mmHg 68%
    11:00 +5°C° 0.1 mm 9 mps 764 mmHg 67%
    12:00 +5°C° 0.1 mm 9 mps 764 mmHg 66%
    13:00 +6°C° 0.1 mm 9 mps 763 mmHg 66%
    14:00 +6°C° 0.1 mm 8 mps 763 mmHg 66%
    15:00 +6°C° 0.1 mm 8 mps 763 mmHg 66%
    16:00 +5°C° 0 mm 8 mps 762 mmHg 69%
    17:00 +5°C° 0 mm 7 mps 762 mmHg 72%
    18:00 +4°C° 0 mm 7 mps 762 mmHg 75%
    19:00 +4°C° 0.1 mm 7 mps 761 mmHg 77%
    20:00 +4°C° 0.1 mm 8 mps 761 mmHg 80%
    21:00 +4°C° 0.1 mm 8 mps 760 mmHg 83%
    22:00 +4°C° 0.5 mm 8 mps 759 mmHg 83%
    23:00 +4°C° 0.5 mm 8 mps 758 mmHg 84%

    Day after tomorrow, 19 February, Wednesday

    Time Temperature Precipitation Wind Pressure Humidity
    00:00 +4°C° 0.5 mm 8 mps 758 mmHg 84%
    01:00 +4°C° 0.7 mm 8 mps 757 mmHg 83%
    02:00 +4°C° 0.7 mm 7 mps 757 mmHg 82%
    03:00 +3°C° 0.7 mm 7 mps 757 mmHg 80%
    04:00 +3°C° 0.1 mm 6 mps 758 mmHg 80%
    05:00 +2°C° 0.1 mm 6 mps 758 mmHg 80%
    06:00 +1°C° 0.1 mm 6 mps 759 mmHg 79%
    07:00 +2°C° 0.1 mm 6 mps 760 mmHg 77%
    08:00 +2°C° 0.1 mm 7 mps 760 mmHg 74%
    09:00 +3°C° 0.1 mm 7 mps 761 mmHg 71%
    10:00 +3°C° 0 mm 7 mps 761 mmHg 69%
    11:00 +4°C° 0 mm 7 mps 762 mmHg 66%
    12:00 +4°C° 0 mm 8 mps 762 mmHg 64%
    13:00 +4°C° 0 mm 7 mps 762 mmHg 64%
    14:00 +4°C° 0 mm 7 mps 762 mmHg 64%
    15:00 +4°C° 0 mm 7 mps 763 mmHg 64%
    16:00 +3°C° 0 mm 6 mps 763 mmHg 67%
    17:00 +2°C° 0 mm 5 mps 763 mmHg 71%
    18:00 +3°C° 0 mm 4 mps 763 mmHg 74%
    19:00 +3°C° 0 mm 4 mps 762 mmHg 76%
    20:00 +2°C° 0 mm 5 mps 762 mmHg 77%
    21:00 +2°C° 0 mm 5 mps 762 mmHg 78%
    22:00 +3°C° 0.1 mm 5 mps 761 mmHg 81%
    23:00 +3°C° 0.1 mm 6 mps 761 mmHg 84%

    20 February, Thursday

    Time Temperature Precipitation Wind Pressure Humidity
    00:00 +4°C° 0.1 mm 6 mps 761 mmHg 87%
    01:00 +4°C° 0.1 mm 6 mps 760 mmHg 87%
    02:00 +5°C° 0.1 mm 7 mps 759 mmHg 87%
    03:00 +5°C° 0.1 mm 7 mps 759 mmHg 87%
    04:00 +5°C° 0.1 mm 6 mps 759 mmHg 87%
    05:00 +5°C° 0.1 mm 6 mps 759 mmHg 87%
    06:00 +5°C° 0.1 mm 6 mps 759 mmHg 87%
    07:00 +5°C° 0 mm 6 mps 758 mmHg 85%
    08:00 +5°C° 0 mm 6 mps 758 mmHg 82%
    09:00 +5°C° 0 mm 7 mps 758 mmHg 79%
    10:00 +6°C° 0 mm 7 mps 758 mmHg 76%
    11:00 +6°C° 0 mm 7 mps 758 mmHg 74%
    12:00 +7°C° 0 mm 8 mps 758 mmHg 71%
    13:00 +7°C° 0 mm 8 mps 757 mmHg 71%
    14:00 +7°C° 0 mm 8 mps 757 mmHg 71%
    15:00 +7°C° 0 mm 8 mps 757 mmHg 71%
    16:00 +7°C° 0 mm 8 mps 756 mmHg 72%
    17:00 +7°C° 0 mm 8 mps 756 mmHg 73%
    18:00 +6°C° 0 mm 9 mps 755 mmHg 75%
    19:00 +6°C° 0.5 mm 9 mps 756 mmHg 75%
    20:00 +6°C° 0.5 mm 8 mps 757 mmHg 75%
    21:00 +6°C° 0.5 mm 8 mps 757 mmHg 76%
    22:00 +5°C° 0 mm 7 mps 758 mmHg 75%
    23:00 +4°C° 0 mm 6 mps 759 mmHg 75%

    21 February, Friday

    Time Temperature Precipitation Wind Pressure Humidity
    00:00 +3°C° 0 mm 5 mps 760 mmHg 75%
    01:00 +2°C° 0 mm 6 mps 761 mmHg 74%
    02:00 +2°C° 0 mm 6 mps 762 mmHg 73%
    03:00 +1°C° 0 mm 6 mps 763 mmHg 72%
    04:00 +1°C° 0 mm 6 mps 764 mmHg 73%
    05:00 +1°C° 0 mm 6 mps 764 mmHg 74%
    06:00 +1°C° 0 mm 6 mps 765 mmHg 75%
    13:00 +5°C° 0 mm 7 mps 769 mmHg 62%
    14:00 +5°C° 0 mm 7 mps 769 mmHg 62%
    15:00 +5°C° 0 mm 7 mps 768 mmHg 61%
    16:00 +5°C° 0 mm 6 mps 768 mmHg 64%
    17:00 +4°C° 0 mm 6 mps 768 mmHg 66%
    18:00 +5°C° 0 mm 5 mps 768 mmHg 69%
    19:00 +4°C° 0 mm 6 mps 768 mmHg 70%
    20:00 +4°C° 0 mm 6 mps 768 mmHg 70%
    21:00 +4°C° 0 mm 7 mps 768 mmHg 71%
    22:00 +4°C° 0 mm 8 mps 768 mmHg 72%
    23:00 +4°C° 0 mm 8 mps 767 mmHg 73%

    22 February, Saturday

    Time Temperature Precipitation Wind Pressure Humidity
    00:00 +4°C° 0 mm 8 mps 767 mmHg 75%
    01:00 +3°C° 0 mm 9 mps 767 mmHg 74%
    02:00 +3°C° 0 mm 9 mps 766 mmHg 74%
    03:00 +3°C° 0 mm 9 mps 766 mmHg 74%
    04:00 +3°C° 0 mm 9 mps 765 mmHg 74%
    05:00 +3°C° 0 mm 9 mps 765 mmHg 75%
    06:00 +3°C° 0 mm 10 mps 765 mmHg 75%
    07:00 +3°C° 0 mm 10 mps 765 mmHg 76%
    08:00 +3°C° 0 mm 10 mps 765 mmHg 76%
    09:00 +3°C° 0 mm 10 mps 765 mmHg 77%
    10:00 +5°C° 0 mm 10 mps 765 mmHg 77%
    11:00 +6°C° 0 mm 10 mps 765 mmHg 78%
    12:00 +6°C° 0 mm 10 mps 765 mmHg 78%
    13:00 +7°C° 0 mm 10 mps 765 mmHg 78%
    14:00 +7°C° 0 mm 10 mps 764 mmHg 79%
    15:00 +8°C° 0 mm 10 mps 764 mmHg 80%
    16:00 +8°C° 0 mm 10 mps 764 mmHg 81%
    17:00 +8°C° 0 mm 10 mps 764 mmHg 81%
    18:00 +9°C° 0 mm 10 mps 764 mmHg 82%
    19:00 +9°C° 0.2 mm 10 mps 765 mmHg 84%
    20:00 +8°C° 0.2 mm 9 mps 765 mmHg 86%
    21:00 +8°C° 0.2 mm 9 mps 765 mmHg 87%
    22:00 +10°C° 0.3 mm 9 mps 765 mmHg 88%
    23:00 +10°C° 0.3 mm 9 mps 765 mmHg 88%
    Show more